User: anonymous   Login
Location: Unspecified
(0.0000°N, 0.0000°E)
Time: 18:10:44
(UTC+00:00)
Language:

COSMOS 2509 - Orbit

View from above orbital plane
View from above orbital plane
View from above satellite
View from above satellite

Ground track
Ground track

The orbit data is extracted from the following two-line orbital elements,

1 40922U 15050C   18288.75275982 -.00001785  00000-0 -12967-1 0  9999
2 40922  82.4927  23.3070 0015612  28.3108 331.8827 12.42861324138864
Epoch (UTC): 15 October 2018 18:03:58
Eccentricity: 0.0015612
inclination: 82.4927°
perigee height: 1482 km
apogee height: 1507 km
right ascension of ascending node: 23.3070°
argument of perigee: 28.3108°
revolutions per day: 12.42861324
mean anomaly at epoch: 331.8827°
orbit number at epoch: 13886

The dashed part of the orbit path shows where the satellite is in the earth's shadow,  

DLR